Overview Statistics Trail Chart Weather Telemetry Raw packets
 

This is the latest recevied weather packets stored in our database for station/object ALANSN-2. If no packets are shown the sender has not sent any weather packets the latest 10 day(s).

<< 109 110 111 112 113 114 >>
Time Temp. Humidity Pressure Rain* Wind** Luminosity Snow
1787737920 20° C 73% 1023.1 hPa 0 mm - 0 W/m² -
1787737620 20° C 74% 1023.2 hPa 0 mm - 0 W/m² -
1787737320 20° C 73% 1023.4 hPa 0 mm - 0 W/m² -
1787737021 20° C 73% 1023.4 hPa 0 mm - 0 W/m² -
1787736720 20° C 73% 1023.4 hPa 0 mm - 0 W/m² -
1787736420 20° C 72% 1023.4 hPa 0 mm - 0 W/m² -
1787736119 20° C 72% 1023.4 hPa 0 mm - 0 W/m² -
1787735820 20° C 71% 1023.5 hPa 0 mm - 0 W/m² -
1787735520 20° C 73% 1023.6 hPa 0 mm - 0 W/m² -
1787735220 20° C 73% 1023.6 hPa 0 mm - 0 W/m² -
1787734920 20° C 73% 1023.5 hPa 0 mm - 0 W/m² -
1787734620 20° C 70% 1023.5 hPa 0 mm - 0 W/m² -
1787734320 20° C 70% 1023.5 hPa 0 mm - 0 W/m² -
1787734020 20° C 70% 1023.7 hPa 0 mm - 0 W/m² -
1787733720 20° C 72% 1023.8 hPa 0 mm - 0 W/m² -
1787733417 20° C 72% 1023.8 hPa 0 mm - 0 W/m² -
1787733120 20° C 70% 1023.6 hPa 0 mm - 0 W/m² -
1787732825 20° C 69% 1024 hPa 0 mm - 0 W/m² -
1787732520 20° C 69% 1024 hPa 0 mm - 0 W/m² -
1787732220 20° C 74% 1023.8 hPa 0 mm - 0 W/m² -
1787731919 20° C 69% 1024.2 hPa 0 mm - 0 W/m² -
1787731620 20° C 69% 1024.2 hPa 0 mm - 0 W/m² -
1787731320 20° C 70% 1024 hPa 0 mm - 0 W/m² -
1787731021 20° C 69% 1024.1 hPa 0 mm - 0 W/m² -
1787730720 20° C 69% 1024.1 hPa 0 mm - 0 W/m² -

* Rain latest hour (hover to see other rain measurements)
** Current wind speed in m/s (hover to see current wind gust speed)